• In Hungary
  • List of Countries
  • For 7 days
  • Water Temperature
  • Satellite Maps
  • Weather Map
  • News
  • Weather Widgets
  • user-avatar
    Login

    Hourly Weather Edegem

    Today, 20 September, Thursday

    Time Temperature Precipitation Wind Pressure Humidity
    00:00 +18°C° 0 mm 3 mps 761 mmHg 82%
    01:00 +17°C° 0 mm 3 mps 761 mmHg 83%
    02:00 +17°C° 0 mm 3 mps 761 mmHg 85%
    03:00 +17°C° 0 mm 3 mps 761 mmHg 87%
    04:00 +17°C° 0 mm 4 mps 761 mmHg 87%
    05:00 +15°C° 0 mm 4 mps 761 mmHg 87%
    06:00 +15°C° 0 mm 4 mps 761 mmHg 88%
    07:00 +17°C° 0 mm 5 mps 761 mmHg 82%
    08:00 +19°C° 0 mm 6 mps 761 mmHg 76%
    09:00 +21°C° 0 mm 6 mps 761 mmHg 70%
    10:00 +22°C° 0 mm 6 mps 761 mmHg 66%
    11:00 +23°C° 0 mm 6 mps 760 mmHg 62%
    12:00 +24°C° 0 mm 6 mps 760 mmHg 58%
    13:00 +24°C° 0 mm 6 mps 760 mmHg 57%
    14:00 +24°C° 0 mm 6 mps 759 mmHg 56%
    15:00 +26°C° 0 mm 6 mps 759 mmHg 55%
    16:00 +23°C° 0 mm 5 mps 758 mmHg 60%
    17:00 +22°C° 0 mm 4 mps 758 mmHg 65%
    18:00 +21°C° 0 mm 3 mps 757 mmHg 69%
    19:00 +21°C° 0 mm 4 mps 757 mmHg 66%
    20:00 +21°C° 0 mm 5 mps 756 mmHg 64%
    21:00 +21°C° 0 mm 5 mps 756 mmHg 61%
    22:00 +21°C° 0 mm 6 mps 755 mmHg 60%
    23:00 +21°C° 0 mm 6 mps 754 mmHg 59%

    Tomorrow, 21 September, Friday

    Time Temperature Precipitation Wind Pressure Humidity
    00:00 +21°C° 0 mm 7 mps 754 mmHg 58%
    01:00 +21°C° 0 mm 7 mps 753 mmHg 58%
    02:00 +21°C° 0 mm 8 mps 752 mmHg 58%
    03:00 +21°C° 0 mm 9 mps 751 mmHg 59%
    04:00 +19°C° 0.9 mm 9 mps 751 mmHg 66%
    05:00 +18°C° 0.9 mm 10 mps 752 mmHg 73%
    06:00 +17°C° 0.9 mm 10 mps 752 mmHg 80%
    07:00 +16°C° 0.3 mm 10 mps 753 mmHg 75%
    08:00 +16°C° 0.3 mm 9 mps 754 mmHg 70%
    09:00 +15°C° 0.3 mm 8 mps 756 mmHg 64%
    10:00 +16°C° 0 mm 9 mps 756 mmHg 58%
    11:00 +16°C° 0 mm 9 mps 757 mmHg 51%
    12:00 +17°C° 0 mm 9 mps 758 mmHg 44%
    13:00 +17°C° 0 mm 9 mps 758 mmHg 44%
    14:00 +17°C° 0 mm 9 mps 758 mmHg 44%
    15:00 +17°C° 0 mm 9 mps 759 mmHg 44%
    16:00 +16°C° 0 mm 8 mps 759 mmHg 48%
    17:00 +15°C° 0 mm 7 mps 760 mmHg 53%
    18:00 +14°C° 0 mm 6 mps 760 mmHg 57%
    19:00 +14°C° 0.1 mm 6 mps 761 mmHg 59%
    20:00 +13°C° 0.1 mm 6 mps 761 mmHg 61%
    21:00 +13°C° 0.1 mm 6 mps 762 mmHg 63%
    22:00 +13°C° 0.1 mm 6 mps 762 mmHg 64%
    23:00 +13°C° 0.1 mm 5 mps 762 mmHg 65%

    Day after tomorrow, 22 September, Saturday

    Time Temperature Precipitation Wind Pressure Humidity
    00:00 +12°C° 0.1 mm 5 mps 762 mmHg 66%
    01:00 +12°C° 0.1 mm 5 mps 763 mmHg 67%
    02:00 +12°C° 0.1 mm 5 mps 763 mmHg 68%
    03:00 +12°C° 0.1 mm 4 mps 763 mmHg 69%
    04:00 +11°C° 0.1 mm 4 mps 763 mmHg 71%
    05:00 +11°C° 0.1 mm 4 mps 764 mmHg 73%
    06:00 +11°C° 0.1 mm 4 mps 764 mmHg 75%
    07:00 +12°C° 0.1 mm 5 mps 764 mmHg 69%
    08:00 +13°C° 0.1 mm 5 mps 764 mmHg 64%
    09:00 +15°C° 0.1 mm 6 mps 765 mmHg 59%
    10:00 +16°C° 0.2 mm 6 mps 765 mmHg 56%
    11:00 +16°C° 0.2 mm 6 mps 765 mmHg 53%
    12:00 +17°C° 0.2 mm 6 mps 765 mmHg 51%
    13:00 +17°C° 0 mm 5 mps 765 mmHg 51%
    14:00 +17°C° 0 mm 5 mps 765 mmHg 51%
    15:00 +16°C° 0 mm 5 mps 765 mmHg 51%
    16:00 +17°C° 0 mm 4 mps 765 mmHg 54%
    17:00 +16°C° 0 mm 3 mps 765 mmHg 57%
    18:00 +15°C° 0 mm 2 mps 765 mmHg 60%
    19:00 +14°C° 0 mm 2 mps 765 mmHg 61%
    20:00 +14°C° 0 mm 2 mps 764 mmHg 62%
    21:00 +14°C° 0 mm 2 mps 764 mmHg 64%
    22:00 +13°C° 0.2 mm 2 mps 764 mmHg 68%
    23:00 +13°C° 0.2 mm 2 mps 763 mmHg 73%

    23 September, Sunday

    Time Temperature Precipitation Wind Pressure Humidity
    00:00 +13°C° 0.2 mm 2 mps 763 mmHg 78%
    01:00 +12°C° 1.1 mm 3 mps 762 mmHg 82%
    02:00 +11°C° 1.1 mm 3 mps 761 mmHg 86%
    03:00 +11°C° 1.1 mm 4 mps 760 mmHg 90%
    04:00 +11°C° 0.5 mm 4 mps 759 mmHg 89%
    05:00 +10°C° 0.5 mm 5 mps 758 mmHg 89%
    06:00 +11°C° 0.5 mm 6 mps 756 mmHg 88%
    07:00 +13°C° 1.2 mm 6 mps 755 mmHg 90%
    08:00 +15°C° 1.2 mm 7 mps 753 mmHg 91%
    09:00 +16°C° 1.2 mm 7 mps 752 mmHg 93%
    10:00 +17°C° 1.1 mm 8 mps 751 mmHg 91%
    11:00 +19°C° 1.1 mm 9 mps 750 mmHg 89%
    12:00 +21°C° 1.1 mm 10 mps 749 mmHg 87%
    13:00 +21°C° 0.7 mm 11 mps 747 mmHg 85%
    14:00 +21°C° 0.7 mm 11 mps 745 mmHg 83%
    15:00 +21°C° 0.7 mm 12 mps 743 mmHg 81%
    16:00 +18°C° 0.5 mm 12 mps 742 mmHg 78%
    17:00 +15°C° 0.5 mm 12 mps 741 mmHg 75%
    18:00 +13°C° 0.5 mm 13 mps 740 mmHg 71%
    19:00 +13°C° 0.4 mm 14 mps 742 mmHg 74%
    20:00 +14°C° 0.4 mm 15 mps 744 mmHg 76%
    21:00 +14°C° 0.4 mm 16 mps 746 mmHg 79%
    22:00 +13°C° 0.4 mm 14 mps 750 mmHg 76%
    23:00 +12°C° 0.4 mm 12 mps 754 mmHg 74%

    24 September, Monday

    Time Temperature Precipitation Wind Pressure Humidity
    00:00 +11°C° 0.4 mm 11 mps 758 mmHg 71%
    01:00 +11°C° 0.1 mm 10 mps 760 mmHg 71%
    02:00 +11°C° 0.1 mm 9 mps 762 mmHg 71%
    03:00 +10°C° 0.1 mm 7 mps 764 mmHg 70%
    04:00 +10°C° 0.1 mm 7 mps 765 mmHg 71%
    05:00 +10°C° 0.1 mm 6 mps 766 mmHg 72%
    06:00 +10°C° 0.1 mm 6 mps 767 mmHg 72%
    07:00 +11°C° 0.1 mm 6 mps 768 mmHg 68%
    08:00 +11°C° 0.1 mm 7 mps 769 mmHg 65%
    09:00 +12°C° 0.1 mm 8 mps 770 mmHg 61%
    10:00 +13°C° 0.2 mm 8 mps 770 mmHg 60%
    11:00 +13°C° 0.2 mm 8 mps 771 mmHg 59%
    12:00 +13°C° 0.2 mm 8 mps 771 mmHg 58%
    13:00 +13°C° 0.2 mm 8 mps 772 mmHg 58%
    14:00 +14°C° 0.2 mm 7 mps 772 mmHg 58%
    15:00 +14°C° 0.2 mm 7 mps 772 mmHg 58%
    16:00 +13°C° 0 mm 6 mps 773 mmHg 62%
    17:00 +12°C° 0 mm 5 mps 773 mmHg 65%
    18:00 +10°C° 0 mm 4 mps 773 mmHg 68%
    19:00 +10°C° 0 mm 3 mps 774 mmHg 70%
    20:00 +10°C° 0 mm 3 mps 774 mmHg 73%
    21:00 +9°C° 0 mm 3 mps 775 mmHg 75%
    22:00 +9°C° 0 mm 3 mps 775 mmHg 76%
    23:00 +9°C° 0 mm 3 mps 775 mmHg 77%

    25 September, Tuesday

    Time Temperature Precipitation Wind Pressure Humidity
    00:00 +9°C° 0 mm 3 mps 775 mmHg 78%
    01:00 +9°C° 0 mm 3 mps 775 mmHg 79%
    02:00 +9°C° 0 mm 3 mps 775 mmHg 79%
    03:00 +9°C° 0 mm 3 mps 775 mmHg 80%
    04:00 +9°C° 0 mm 3 mps 775 mmHg 82%
    05:00 +9°C° 0 mm 3 mps 775 mmHg 83%
    06:00 +9°C° 0 mm 3 mps 775 mmHg 85%
    07:00 +11°C° 0 mm 3 mps 776 mmHg 79%
    08:00 +13°C° 0 mm 3 mps 776 mmHg 73%
    09:00 +16°C° 0 mm 3 mps 776 mmHg 67%
    10:00 +16°C° 0 mm 3 mps 776 mmHg 64%
    11:00 +17°C° 0 mm 2 mps 776 mmHg 60%
    12:00 +18°C° 0 mm 2 mps 775 mmHg 57%
    13:00 +18°C° 0 mm 2 mps 775 mmHg 56%
    14:00 +18°C° 0 mm 2 mps 775 mmHg 56%
    15:00 +18°C° 0 mm 2 mps 774 mmHg 56%
    16:00 +16°C° 0 mm 2 mps 774 mmHg 62%
    17:00 +15°C° 0 mm 2 mps 774 mmHg 68%
    18:00 +13°C° 0 mm 1 mps 774 mmHg 75%
    19:00 +13°C° 0 mm 1 mps 774 mmHg 78%
    20:00 +12°C° 0 mm 1 mps 774 mmHg 81%
    21:00 +11°C° 0 mm 1 mps 774 mmHg 84%
    22:00 +11°C° 0 mm 1 mps 774 mmHg 85%
    23:00 +10°C° 0 mm 2 mps 773 mmHg 86%
    Show more